SCP
0 0 0 0 0 0 0 0 0 0 -0 -0 -0 -0 -0 -0 -0 -0 -0 -0 -0 -0 0 0 0 0 0 0 0 0 0 0 0 0 0 0 0 0
0 0 0 0 0 0 0 0 0 0 0 0 0 0 -0 -0 -0 -0 -0 -0 -0 -0 -0 0 0 0 0 0 0 0 0 0 0 0 0 0 0 0
0 0 0 0 0 0 0 0 0 0 0 0 0 0 -0 -0 -0 -0 -0 -0 -0 -0 0 -0 0 0 0 0 0 0 0 0 0 0 0 0 0 0
0 0 0 0 0 0 0 0 0 0 0 0 0 0 -0 -0 -0 -0 -0 -0 -0 -0 0 0 0 0 0 0 0 0 0 0 0 0 0 0 0 0
0 0 0 0 0 0 0 0 0 0 0 0 0 0 0 -0 -0 -0 -0 -0 -0 0 0 0 0 0 0 0 0 0 0 0 0 0 0 0 0 0
0 0 0 0 0 0 0 0 0 0 0 0 0 0 0 0 -0 -0 -0 -0 -0 -0 0 0 0 0 0 0 0 0 0 0 0 0 0 0 0 0
0 0 0 0 0 0 0 0 0 0 0 0 0 0 0 0 0 0 0 0 0 0 0 0 0 0 0 0 0 0 0 0 0 0 0 0 0 0
0 0 0 0 0 0 0 0 0 0 0 0 0 0 0 0 0 0 0 0 0 0 -0 0 0 0 0 0 0 0 0 0 0 0 0 0 0 0
0 0 0 0 0 0 0 0 0 0 0 0 0 0 0 0 0 0 0 0 0 0 0 0 0 0 0 0 0 0 0 0 0 0 0 0 0 0
0 0 0 0 0 0 0 0 0 0 0 0 0 0 0 0 0 0 0 0 0 0 0 0 0 0 0 0 0 0 0 0 0 0 0 0 0 0
0 0 0 0 0 0 0 0 0 0 0 0 0 0 0 0 0 0 0 0 0 0 0 0 0 0 0 0 0 -0 -0 0 0 0 0 0 0 0
0 0 0 0 0 0 0 0 0 0 0 0 0 0 0 0 0 0 0 0 0 0 0 0 0 0 -0 0 0 0 0 0 0 0 0 0 0 0
0 0 0 0 0 0 0 0 0 0 0 0 0 0 0 0 0 0 0 0 0 0 0 0 0 0 0 0 0 0 0 0 0 0 0 0 0 0
0 0 0 0 0 0 0 0 0 0 0 0 0 0 0 0 0 0 0 0 0 0 0 0 0 0 0 0 0 0 0 0 0 0 0 0 0 0
0 0 0 0 0 0 0 0 0 0 0 0 0 0 0 0 0 0 0 0 0 0 0 0 0 0 0 0 0 0 0 0 0 0 0 0 0 0
0 0 0 0 0 0 0 0 0 0 0 0 0 0 0 0 0 0 0 0 0 0 0 0 0 0 0 0 0 0 0 0 0 0 0 0 0 0
0 0 0 0 0 0 0 0 0 0 0 0 0 0 0 0 0 0 0 0 0 0 0 0 0 0 0 0 0 0 0 0 0 0 0 0 0 0
0 0 0 0 0 0 0 0 0 0 0 0 0 0 0 0 0 0 0 0 0 0 0 0 0 0 0 0 0 0 0 0 0 0 0 0 0 0
0 0 0 0 0 0 0 0 0 0 0 0 0 0 0 0 0 0 0 0 0 0 0 0 0 0 0 0 0 0 0 0 0 0 0 0 0 0
0 0 0 0 0 0 0 0 0 0 0 0 0 0 0 0 0 0 0 0 0 0 0 0 0 0 0 0 0 0 0 0 0 0 0 0 0 0
0 0 0 0 0 0 0 0 0 0 0 0 0 0 0 0 0 0 0 0 0 0 0 0 0 0 0 0 0 0 0 0 0 0 0 0 0 0
0 0 0 0 0 0 0 0 0 0 0 0 0 0 0 0 0 0 0 0 0 0 0 0 0 0 0 0 0 0 0 0 0 0 0 0 0 0
0 0 0 0 0 0 0 0 0 0 0 0 0 0 0 0 0 0 0 0 0 0 0 0 0 0 0 0 0 0 0 -0 -0 0 0 0 0 0
Wind_Speed_500mb
35 36 37 37 37 38 40 42 44 49 77 79 80 81 84 90 91 92 91 91 91 88 86 84 79 73 69 70 72 71 71 68 66 62 66 70 68 78
33 34 35 35 36 38 42 43 42 45 56 81 84 84 86 89 92 93 94 92 89 89 83 82 80 76 72 70 71 73 74 75 72 69 67 66 68 67
37 37 38 39 39 41 44 46 47 50 61 85 83 88 91 93 94 95 95 94 91 85 80 61 52 59 61 62 62 61 65 70 75 75 73 70 68 76
40 42 43 44 45 46 48 49 53 56 62 80 87 92 95 97 99 96 93 91 88 84 74 74 67 64 69 68 71 68 71 67 73 79 80 79 73 73
42 44 46 48 49 50 52 55 58 61 65 75 93 90 94 95 98 95 90 85 81 79 75 70 67 58 50 49 54 55 61 69 56 55 69 77 77 77
43 47 49 52 53 55 57 58 60 65 69 76 85 91 92 91 84 82 93 88 89 80 76 74 69 63 65 68 58 53 62 60 52 44 44 49 69 78
48 50 52 54 54 57 60 60 63 66 70 75 83 87 91 87 82 82 85 90 92 86 89 81 83 81 73 69 64 55 39 50 61 61 58 59 54 56
54 54 54 55 57 60 60 60 58 58 66 69 75 77 84 82 81 82 88 93 103 85 77 95 85 88 83 74 68 54 57 58 58 58 63 82 76 63
56 57 57 57 60 62 61 60 56 58 52 59 71 74 82 84 85 90 88 92 91 85 78 85 90 95 85 82 69 62 61 59 61 60 59 58 61 59
57 57 58 58 58 60 62 61 67 69 68 65 65 71 73 80 86 89 90 97 105 88 72 93 87 87 77 78 76 61 53 48 43 42 46 56 60 55
61 58 57 59 56 57 48 59 67 70 73 75 72 66 66 71 70 71 75 78 84 72 68 73 74 77 82 85 60 18 30 45 49 59 56 55 56 61
61 59 57 56 50 39 45 55 67 76 74 75 77 75 71 67 62 56 56 65 70 68 42 64 81 71 68 62 27 54 77 64 62 61 61 55 55 63
62 61 58 55 47 39 42 50 65 59 70 72 69 68 64 60 56 53 52 54 69 75 75 74 80 78 75 78 83 85 84 76 72 69 66 65 62 58
63 60 58 55 45 39 45 60 56 55 64 62 61 60 59 60 60 60 60 59 55 60 59 59 65 64 72 82 81 82 78 74 73 73 70 69 68 63
60 60 52 48 54 58 61 59 54 55 56 54 54 54 56 58 61 64 62 59 58 57 56 53 50 57 62 74 79 81 76 75 70 67 72 70 71 70
58 56 53 54 56 59 65 57 49 48 49 49 51 52 55 57 59 64 66 64 65 66 55 50 48 46 57 68 75 78 74 76 72 67 69 74 76 75
53 59 59 62 65 66 61 51 48 44 44 45 47 50 54 58 61 63 62 61 64 69 71 59 52 53 51 57 71 75 74 73 69 74 75 84 82 81
56 69 69 70 70 64 57 50 45 43 43 44 47 50 54 58 63 65 64 62 63 66 71 66 66 67 61 55 48 55 62 71 75 78 84 83 86 71
72 72 71 70 65 57 52 48 46 44 44 45 48 49 51 55 59 64 66 66 65 66 68 65 64 61 66 67 68 51 59 65 62 65 67 74 75 46
73 73 71 64 62 54 49 47 46 46 45 48 47 47 47 51 57 61 64 66 64 70 72 66 61 60 60 71 80 70 47 59 59 69 75 70 57 46
75 74 64 61 59 51 48 46 46 47 47 47 46 44 43 46 52 57 61 60 63 68 72 70 62 56 59 59 65 70 61 52 50 54 57 51 55 55
67 68 63 59 54 48 47 46 47 46 44 43 42 40 38 41 50 54 56 60 65 67 68 67 63 59 55 53 57 61 62 55 41 35 38 23 30 32
56 55 55 53 48 45 47 47 46 43 39 40 39 36 33 38 44 48 52 56 64 66 65 69 65 57 49 50 51 51 50 50 51 49 35 24 24 26
Wind_Direction_500mb
330 327 324 324 324 327 326 328 329 321 320 325 326 328 328 326 324 322 320 318 316 314 312 310 307 302 295 291 288 284 281 277 277 277 272 265 254 246
325 320 315 313 317 319 320 321 319 313 306 318 321 323 323 322 321 319 316 314 313 313 312 310 309 308 302 293 286 284 280 277 273 271 270 268 259 244
325 321 314 313 315 317 316 316 315 313 307 314 318 319 320 319 319 319 317 315 313 311 312 317 302 294 293 297 296 294 289 283 274 269 266 264 260 245
325 318 312 312 313 314 313 313 313 312 309 311 317 319 319 320 320 319 317 315 315 313 311 310 309 305 303 298 290 286 284 289 281 272 266 260 261 254
322 316 313 310 310 310 310 311 312 311 311 311 313 315 316 319 320 321 322 319 317 316 314 313 315 313 304 302 296 291 287 279 285 290 278 266 262 259
318 314 310 307 307 307 308 309 308 310 312 311 310 313 316 321 323 325 321 322 320 320 318 319 317 315 312 306 302 291 282 279 275 276 273 274 267 260
315 311 307 305 303 303 304 306 308 309 310 311 311 315 317 322 323 323 318 321 319 320 319 321 321 318 315 315 314 310 297 284 282 281 287 285 269 280
309 307 304 303 302 300 301 302 305 307 309 307 311 308 309 315 319 316 313 311 308 317 315 314 319 315 314 314 315 307 300 299 294 293 289 273 269 269
306 308 307 304 301 300 299 301 304 307 303 301 298 306 310 315 318 314 312 310 302 306 311 306 307 308 311 311 307 302 298 296 295 296 295 293 288 279
305 306 304 302 299 299 300 307 314 315 312 310 306 303 302 305 303 299 298 292 290 294 298 299 307 306 313 311 312 313 298 297 300 298 301 298 292 287
302 302 301 299 300 300 308 303 304 303 305 303 299 299 300 301 299 297 291 297 296 299 302 301 307 306 307 309 318 302 328 315 306 301 304 305 297 290
299 300 298 300 300 293 294 297 296 303 307 307 311 310 311 311 308 303 299 296 301 304 300 290 299 306 308 305 293 294 305 310 313 309 309 313 314 295
297 298 299 298 295 292 288 286 297 308 299 307 310 312 317 319 319 317 309 295 291 290 291 292 294 296 291 289 292 299 304 310 310 310 311 310 307 313
296 296 296 295 294 287 286 297 306 299 306 307 311 319 324 327 328 325 319 310 303 298 298 296 293 295 296 297 295 302 304 304 306 308 310 313 311 305
292 291 293 286 283 288 296 304 303 304 305 310 315 322 328 328 326 327 325 323 318 314 311 308 298 301 299 293 292 299 302 306 306 306 307 312 314 310
289 286 283 283 289 299 302 304 304 305 308 312 316 322 326 326 330 335 331 331 326 326 325 319 311 298 293 295 296 293 301 291 309 308 310 310 312 310
288 289 288 287 290 296 300 302 303 305 307 311 315 320 324 329 332 335 336 334 330 330 330 328 321 314 301 291 291 295 299 304 309 311 311 310 314 312
274 272 278 282 287 293 297 299 300 304 307 311 314 318 323 327 330 335 339 336 331 329 327 329 327 325 321 312 305 305 304 304 310 310 308 302 311 319
263 271 275 280 285 289 292 295 298 301 305 309 312 317 320 322 329 335 337 337 335 332 331 330 330 330 316 306 318 312 298 303 310 309 312 310 307 311
268 270 275 278 282 284 286 290 294 298 302 306 310 314 317 322 328 333 336 335 337 337 332 333 332 329 311 305 311 314 322 321 320 315 311 308 305 307
266 271 274 274 277 280 283 287 292 297 302 305 307 312 317 321 328 333 334 335 341 336 332 331 333 330 326 327 310 316 324 326 316 306 309 304 297 303
268 270 271 270 274 278 282 286 290 295 300 303 304 309 315 322 330 331 334 338 342 337 334 333 335 336 334 332 323 326 325 328 323 310 314 297 297 306
271 271 267 268 272 277 281 286 289 294 299 300 302 306 311 321 330 331 335 342 341 338 340 337 338 340 336 340 332 322 327 321 322 321 317 303 297 281
Wind_Speed_850mb
35 36 37 37 37 38 40 42 44 49 77 79 80 81 84 90 91 92 91 91 91 88 86 84 79 73 69 70 72 71 71 68 66 62 66 70 68 78
33 34 35 35 36 38 42 43 42 45 56 81 84 84 86 89 92 93 94 92 89 89 83 82 80 76 72 70 71 73 74 75 72 69 67 66 68 67
37 37 38 39 39 41 44 46 47 50 61 85 83 88 91 93 94 95 95 94 91 85 80 61 52 59 61 62 62 61 65 70 75 75 73 70 68 76
40 42 43 44 45 46 48 49 53 56 62 80 87 92 95 97 99 96 93 91 88 84 74 74 67 64 69 68 71 68 71 67 73 79 80 79 73 73
42 44 46 48 49 50 52 55 58 61 65 75 93 90 94 95 98 95 90 85 81 79 75 70 67 58 50 49 54 55 61 69 56 55 69 77 77 77
43 47 49 52 53 55 57 58 60 65 69 76 85 91 92 91 84 82 93 88 89 80 76 74 69 63 65 68 58 53 62 60 52 44 44 49 69 78
48 50 52 54 54 57 60 60 63 66 70 75 83 87 91 87 82 82 85 90 92 86 89 81 83 81 73 69 64 55 39 50 61 61 58 59 54 56
54 54 54 55 57 60 60 60 58 58 66 69 75 77 84 82 81 82 88 93 103 85 77 95 85 88 83 74 68 54 57 58 58 58 63 82 76 63
56 57 57 57 60 62 61 60 56 58 52 59 71 74 82 84 85 90 88 92 91 85 78 85 90 95 85 82 69 62 61 59 61 60 59 58 61 59
57 57 58 58 58 60 62 61 67 69 68 65 65 71 73 80 86 89 90 97 105 88 72 93 87 87 77 78 76 61 53 48 43 42 46 56 60 55
61 58 57 59 56 57 48 59 67 70 73 75 72 66 66 71 70 71 75 78 84 72 68 73 74 77 82 85 60 18 30 45 49 59 56 55 56 61
61 59 57 56 50 39 45 55 67 76 74 75 77 75 71 67 62 56 56 65 70 68 42 64 81 71 68 62 27 54 77 64 62 61 61 55 55 63
62 61 58 55 47 39 42 50 65 59 70 72 69 68 64 60 56 53 52 54 69 75 75 74 80 78 75 78 83 85 84 76 72 69 66 65 62 58
63 60 58 55 45 39 45 60 56 55 64 62 61 60 59 60 60 60 60 59 55 60 59 59 65 64 72 82 81 82 78 74 73 73 70 69 68 63
60 60 52 48 54 58 61 59 54 55 56 54 54 54 56 58 61 64 62 59 58 57 56 53 50 57 62 74 79 81 76 75 70 67 72 70 71 70
58 56 53 54 56 59 65 57 49 48 49 49 51 52 55 57 59 64 66 64 65 66 55 50 48 46 57 68 75 78 74 76 72 67 69 74 76 75
53 59 59 62 65 66 61 51 48 44 44 45 47 50 54 58 61 63 62 61 64 69 71 59 52 53 51 57 71 75 74 73 69 74 75 84 82 81
56 69 69 70 70 64 57 50 45 43 43 44 47 50 54 58 63 65 64 62 63 66 71 66 66 67 61 55 48 55 62 71 75 78 84 83 86 71
72 72 71 70 65 57 52 48 46 44 44 45 48 49 51 55 59 64 66 66 65 66 68 65 64 61 66 67 68 51 59 65 62 65 67 74 75 46
73 73 71 64 62 54 49 47 46 46 45 48 47 47 47 51 57 61 64 66 64 70 72 66 61 60 60 71 80 70 47 59 59 69 75 70 57 46
75 74 64 61 59 51 48 46 46 47 47 47 46 44 43 46 52 57 61 60 63 68 72 70 62 56 59 59 65 70 61 52 50 54 57 51 55 55
67 68 63 59 54 48 47 46 47 46 44 43 42 40 38 41 50 54 56 60 65 67 68 67 63 59 55 53 57 61 62 55 41 35 38 23 30 32
56 55 55 53 48 45 47 47 46 43 39 40 39 36 33 38 44 48 52 56 64 66 65 69 65 57 49 50 51 51 50 50 51 49 35 24 24 26
Wind_Direction_850mb
330 327 324 324 324 327 326 328 329 321 320 325 326 328 328 326 324 322 320 318 316 314 312 310 307 302 295 291 288 284 281 277 277 277 272 265 254 246
325 320 315 313 317 319 320 321 319 313 306 318 321 323 323 322 321 319 316 314 313 313 312 310 309 308 302 293 286 284 280 277 273 271 270 268 259 244
325 321 314 313 315 317 316 316 315 313 307 314 318 319 320 319 319 319 317 315 313 311 312 317 302 294 293 297 296 294 289 283 274 269 266 264 260 245
325 318 312 312 313 314 313 313 313 312 309 311 317 319 319 320 320 319 317 315 315 313 311 310 309 305 303 298 290 286 284 289 281 272 266 260 261 254
322 316 313 310 310 310 310 311 312 311 311 311 313 315 316 319 320 321 322 319 317 316 314 313 315 313 304 302 296 291 287 279 285 290 278 266 262 259
318 314 310 307 307 307 308 309 308 310 312 311 310 313 316 321 323 325 321 322 320 320 318 319 317 315 312 306 302 291 282 279 275 276 273 274 267 260
315 311 307 305 303 303 304 306 308 309 310 311 311 315 317 322 323 323 318 321 319 320 319 321 321 318 315 315 314 310 297 284 282 281 287 285 269 280
309 307 304 303 302 300 301 302 305 307 309 307 311 308 309 315 319 316 313 311 308 317 315 314 319 315 314 314 315 307 300 299 294 293 289 273 269 269
306 308 307 304 301 300 299 301 304 307 303 301 298 306 310 315 318 314 312 310 302 306 311 306 307 308 311 311 307 302 298 296 295 296 295 293 288 279
305 306 304 302 299 299 300 307 314 315 312 310 306 303 302 305 303 299 298 292 290 294 298 299 307 306 313 311 312 313 298 297 300 298 301 298 292 287
302 302 301 299 300 300 308 303 304 303 305 303 299 299 300 301 299 297 291 297 296 299 302 301 307 306 307 309 318 302 328 315 306 301 304 305 297 290
299 300 298 300 300 293 294 297 296 303 307 307 311 310 311 311 308 303 299 296 301 304 300 290 299 306 308 305 293 294 305 310 313 309 309 313 314 295
297 298 299 298 295 292 288 286 297 308 299 307 310 312 317 319 319 317 309 295 291 290 291 292 294 296 291 289 292 299 304 310 310 310 311 310 307 313
296 296 296 295 294 287 286 297 306 299 306 307 311 319 324 327 328 325 319 310 303 298 298 296 293 295 296 297 295 302 304 304 306 308 310 313 311 305
292 291 293 286 283 288 296 304 303 304 305 310 315 322 328 328 326 327 325 323 318 314 311 308 298 301 299 293 292 299 302 306 306 306 307 312 314 310
289 286 283 283 289 299 302 304 304 305 308 312 316 322 326 326 330 335 331 331 326 326 325 319 311 298 293 295 296 293 301 291 309 308 310 310 312 310
288 289 288 287 290 296 300 302 303 305 307 311 315 320 324 329 332 335 336 334 330 330 330 328 321 314 301 291 291 295 299 304 309 311 311 310 314 312
274 272 278 282 287 293 297 299 300 304 307 311 314 318 323 327 330 335 339 336 331 329 327 329 327 325 321 312 305 305 304 304 310 310 308 302 311 319
263 271 275 280 285 289 292 295 298 301 305 309 312 317 320 322 329 335 337 337 335 332 331 330 330 330 316 306 318 312 298 303 310 309 312 310 307 311
268 270 275 278 282 284 286 290 294 298 302 306 310 314 317 322 328 333 336 335 337 337 332 333 332 329 311 305 311 314 322 321 320 315 311 308 305 307
266 271 274 274 277 280 283 287 292 297 302 305 307 312 317 321 328 333 334 335 341 336 332 331 333 330 326 327 310 316 324 326 316 306 309 304 297 303
268 270 271 270 274 278 282 286 290 295 300 303 304 309 315 322 330 331 334 338 342 337 334 333 335 336 334 332 323 326 325 328 323 310 314 297 297 306
271 271 267 268 272 277 281 286 289 294 299 300 302 306 311 321 330 331 335 342 341 338 340 337 338 340 336 340 332 322 327 321 322 321 317 303 297 281